TimeEST,TemperatureF,Dew PointF,Humidity,Sea Level PressureIn,VisibilityMPH,Wind Direction,Wind SpeedMPH,Gust SpeedMPH,PrecipitationIn,Events,Conditions,WindDirDegrees,DateUTC
12:12 AM,8.1,4.8,87,30.33,2.5,SE,4.6,-,N/A,Snow,Light Snow,140,2014-01-03 05:12:00
12:32 AM,7.7,4.5,87,30.32,7.0,Calm,Calm,-,N/A,Snow,Light Snow,0,2014-01-03 05:32:00
12:52 AM,7.7,4.1,85,30.32,10.0,SE,3.5,-,N/A,Snow,Light Snow,140,2014-01-03 05:52:00
1:12 AM,7.7,4.3,86,30.32,7.0,Calm,Calm,-,N/A,Snow,Light Snow,0,2014-01-03 06:12:00
1:32 AM,7.7,4.5,87,30.31,5.0,Calm,Calm,-,N/A,Snow,Light Snow,0,2014-01-03 06:32:00
1:52 AM,7.7,4.5,87,30.32,10.0,Calm,Calm,-,N/A,,Overcast,0,2014-01-03 06:52:00
2:13 AM,7.7,4.5,87,30.33,10.0,Calm,Calm,-,N/A,,Overcast,0,2014-01-03 07:13:00
2:33 AM,7.7,4.5,87,30.33,10.0,Calm,Calm,-,N/A,,Overcast,0,2014-01-03 07:33:00
2:53 AM,7.5,4.5,87,30.34,10.0,Calm,Calm,-,N/A,,Overcast,0,2014-01-03 07:53:00
3:13 AM,7.7,4.6,87,30.34,10.0,Calm,Calm,-,N/A,,Overcast,0,2014-01-03 08:13:00
3:33 AM,8.4,5.2,87,30.34,10.0,Calm,Calm,-,N/A,,Overcast,0,2014-01-03 08:33:00
3:53 AM,13.1,5.7,72,30.34,10.0,NW,5.8,-,N/A,,Overcast,320,2014-01-03 08:53:00
4:13 AM,12.9,4.8,70,30.34,10.0,NW,3.5,-,N/A,,Overcast,310,2014-01-03 09:13:00
4:33 AM,13.1,4.8,70,30.34,10.0,NW,5.8,-,N/A,,Overcast,320,2014-01-03 09:33:00
4:53 AM,13.1,5.0,70,30.33,10.0,NW,4.6,-,N/A,,Overcast,310,2014-01-03 09:53:00
5:13 AM,13.1,5.0,70,30.33,10.0,WNW,5.8,-,N/A,,Overcast,300,2014-01-03 10:13:00
5:33 AM,13.1,4.3,68,30.33,10.0,WNW,3.5,-,N/A,,Overcast,290,2014-01-03 10:33:00
5:53 AM,13.3,4.3,67,30.32,10.0,West,5.8,-,N/A,,Overcast,260,2014-01-03 10:53:00
6:13 AM,9.5,4.5,80,30.32,10.0,SE,3.5,-,N/A,,Overcast,130,2014-01-03 11:13:00
6:34 AM,9.3,4.5,81,30.32,10.0,SE,4.6,-,N/A,,Overcast,130,2014-01-03 11:34:00
6:54 AM,8.6,4.1,82,30.32,10.0,SE,3.5,-,N/A,,Overcast,140,2014-01-03 11:54:00
7:14 AM,8.2,3.7,82,30.33,10.0,SE,4.6,-,N/A,,Overcast,130,2014-01-03 12:14:00
7:34 AM,7.9,3.7,83,30.32,10.0,SE,4.6,-,N/A,,Overcast,140,2014-01-03 12:34:00
7:54 AM,7.2,3.0,83,30.33,10.0,SE,3.5,-,N/A,,Overcast,130,2014-01-03 12:54:00
8:14 AM,5.7,1.6,83,30.32,10.0,SSE,4.6,-,N/A,,Scattered Clouds,150,2014-01-03 13:14:00
8:34 AM,5.4,1.9,86,30.31,10.0,SE,3.5,-,N/A,,Scattered Clouds,130,2014-01-03 13:34:00
8:55 AM,6.6,2.3,82,30.30,10.0,SE,8.1,-,N/A,,Mostly Cloudy,130,2014-01-03 13:55:00
9:15 AM,6.8,2.3,82,30.29,10.0,ESE,4.6,-,N/A,,Overcast,110,2014-01-03 14:15:00
9:35 AM,7.3,3.0,82,30.29,10.0,SE,3.5,-,N/A,,Mostly Cloudy,130,2014-01-03 14:35:00
9:55 AM,8.6,4.1,82,30.28,10.0,SSE,5.8,-,N/A,Snow,Light Snow,150,2014-01-03 14:55:00
10:15 AM,8.6,4.5,83,30.29,2.5,SSE,9.2,-,N/A,Snow,Light Snow,150,2014-01-03 15:15:00
10:35 AM,9.1,5.4,85,30.29,1.2,SSE,6.9,-,N/A,Snow,Light Snow,150,2014-01-03 15:35:00
10:55 AM,10.2,5.9,83,30.27,4.0,SSE,10.4,-,N/A,Snow,Light Snow,150,2014-01-03 15:55:00
11:15 AM,11.3,6.4,81,30.26,4.0,SSE,15.0,18.4,N/A,Snow,Light Snow,150,2014-01-03 16:15:00
11:35 AM,11.8,5.9,77,30.24,10.0,SSE,13.8,20.7,N/A,,Overcast,150,2014-01-03 16:35:00
11:55 AM,12.4,6.1,76,30.23,10.0,SSE,12.7,18.4,N/A,,Overcast,160,2014-01-03 16:55:00
12:15 PM,13.1,6.4,75,30.22,10.0,South,10.4,19.6,N/A,,Overcast,170,2014-01-03 17:15:00
12:35 PM,14.2,7.9,76,30.22,2.5,South,11.5,-,N/A,Snow,Light Snow,170,2014-01-03 17:35:00
12:56 PM,14.4,9.0,79,30.19,2.5,SSE,15.0,19.6,N/A,Snow,Light Snow,160,2014-01-03 17:56:00
1:16 PM,14.5,9.5,80,30.18,1.8,SSE,10.4,-,N/A,Snow,Light Snow,160,2014-01-03 18:16:00
1:36 PM,14.4,9.5,81,30.16,2.0,SSE,16.1,-,N/A,Snow,Light Snow,150,2014-01-03 18:36:00
1:56 PM,14.7,10.2,82,30.14,1.5,SSE,13.8,20.7,N/A,Snow,Light Snow,160,2014-01-03 18:56:00
2:16 PM,15.3,10.4,81,30.13,5.0,SSE,11.5,18.4,N/A,Snow,Light Snow,160,2014-01-03 19:16:00
2:31 PM,15.6,10.4,80,30.12,10.0,South,12.7,21.9,N/A,Snow,Light Snow,170,2014-01-03 19:31:00
2:51 PM,16.5,10.9,79,30.12,10.0,South,16.1,24.2,N/A,,Overcast,180,2014-01-03 19:51:00
3:11 PM,16.9,10.8,77,30.10,10.0,South,12.7,21.9,N/A,,Overcast,170,2014-01-03 20:11:00
3:32 PM,16.5,10.4,77,30.08,10.0,SSE,13.8,20.7,N/A,,Mostly Cloudy,160,2014-01-03 20:32:00
3:52 PM,16.2,10.4,78,30.08,10.0,SSE,16.1,-,N/A,Snow,Light Snow,160,2014-01-03 20:52:00
4:12 PM,16.2,10.8,79,30.08,10.0,SSE,12.7,20.7,N/A,Snow,Light Snow,160,2014-01-03 21:12:00
4:32 PM,16.3,10.8,79,30.06,10.0,SSE,16.1,19.6,N/A,,Overcast,150,2014-01-03 21:32:00
4:52 PM,16.5,10.9,79,30.05,7.0,SSE,13.8,24.2,N/A,Snow,Light Snow,160,2014-01-03 21:52:00
5:12 PM,16.7,11.1,79,30.04,10.0,SSE,13.8,21.9,N/A,Snow,Light Snow,160,2014-01-03 22:12:00
5:32 PM,17.2,12.2,81,30.02,3.0,South,13.8,19.6,N/A,Snow,Light Snow,170,2014-01-03 22:32:00
5:52 PM,17.6,12.6,81,30.01,4.0,SSE,13.8,23.0,N/A,Snow,Light Snow,160,2014-01-03 22:52:00
6:12 PM,17.6,12.9,82,29.99,3.0,SSE,16.1,23.0,N/A,Snow,Light Snow,160,2014-01-03 23:12:00
6:32 PM,17.2,12.9,83,29.98,2.5,SSE,18.4,23.0,N/A,Snow,Light Snow,160,2014-01-03 23:32:00
6:52 PM,16.9,12.7,84,29.95,2.5,SSE,17.3,25.3,N/A,Snow,Light Snow,160,2014-01-03 23:52:00
7:13 PM,17.2,12.9,83,29.94,3.0,SSE,19.6,23.0,N/A,Snow,Light Snow,160,2014-01-04 00:13:00
7:33 PM,17.4,12.9,83,29.92,2.0,SSE,24.2,31.1,N/A,Snow,Light Snow,160,2014-01-04 00:33:00
7:53 PM,17.6,12.6,81,29.90,2.5,SSE,19.6,29.9,N/A,Snow,Light Snow,160,2014-01-04 00:53:00
8:13 PM,17.6,12.9,82,29.88,1.0,South,18.4,32.2,N/A,Snow,Light Snow,170,2014-01-04 01:13:00
8:33 PM,18.0,12.9,81,29.87,1.5,South,16.1,31.1,N/A,Snow,Light Snow,170,2014-01-04 01:33:00
8:53 PM,18.3,12.9,79,29.85,2.0,South,17.3,29.9,N/A,Snow,Light Snow,170,2014-01-04 01:53:00
9:13 PM,18.3,12.7,79,29.84,2.0,SSE,20.7,31.1,N/A,Snow,Light Snow,160,2014-01-04 02:13:00
9:33 PM,18.5,12.6,78,29.82,3.0,South,21.9,28.8,N/A,Snow,Light Snow,170,2014-01-04 02:33:00
9:54 PM,19.0,13.1,78,29.81,2.0,South,20.7,33.4,N/A,Snow,Light Snow,170,2014-01-04 02:54:00
10:14 PM,19.4,13.3,77,29.81,2.5,SSE,20.7,29.9,N/A,Snow,Light Snow,160,2014-01-04 03:14:00
10:34 PM,19.4,13.5,78,29.80,2.0,South,24.2,35.7,N/A,Snow,Light Snow,170,2014-01-04 03:34:00
10:54 PM,19.4,13.5,78,29.79,2.5,South,20.7,33.4,N/A,Snow,Light Snow,170,2014-01-04 03:54:00
11:14 PM,19.8,13.6,77,29.79,3.0,SSE,18.4,32.2,N/A,Snow,Light Snow,160,2014-01-04 04:14:00
11:34 PM,19.6,13.1,76,29.80,5.0,South,16.1,26.5,N/A,,Haze,170,2014-01-04 04:34:00
11:54 PM,20.1,13.8,77,29.79,7.0,South,17.3,26.5,N/A,,Overcast,170,2014-01-04 04:54:00